SVA333 OERK-OJAI

Flight info

Callsign SVA333
Flight time N/A
Altitude 38000
Route IVONU Z710 GAS G662 HIL R23 ODBUL Q163 GENEX L53 ELOXI
Aircraft A333/H-SDE3GHIJ2J3J5M1RVWXY/LB2D1

Departure

Time N/A
Airport King Khalid International Airport (OERK)

Arrival

Time 2026-05-05 12:44
Airport Queen Alia International Airport (OJAI)
Time Latitude Longitude Altitude Speed Heading
2026-05-05 11:49 28.71375 40.89661 36019 ft 448 kts 315°
2026-05-05 11:49 28.76628 40.85683 36018 ft 447 kts 315°
2026-05-05 11:50 28.81819 40.81743 36019 ft 448 kts 315°
2026-05-05 11:50 28.87103 40.77731 36019 ft 450 kts 315°
2026-05-05 11:51 28.92353 40.73738 36019 ft 449 kts 315°
2026-05-05 11:51 28.97596 40.69747 36015 ft 449 kts 315°
2026-05-05 11:52 29.02798 40.65784 36022 ft 448 kts 315°
2026-05-05 11:52 29.08033 40.61792 36020 ft 448 kts 315°
2026-05-05 11:53 29.13266 40.57799 35991 ft 447 kts 315°
2026-05-05 11:53 29.18418 40.53856 35992 ft 448 kts 315°
2026-05-05 11:54 29.23633 40.49861 36003 ft 448 kts 315°
2026-05-05 11:54 29.28923 40.45803 36000 ft 457 kts 315°
2026-05-05 11:55 29.34278 40.41691 36000 ft 462 kts 316°
2026-05-05 11:55 29.39672 40.37544 36008 ft 465 kts 316°
2026-05-05 11:56 29.45141 40.33334 36027 ft 467 kts 315°
2026-05-05 11:56 29.50567 40.29157 36025 ft 466 kts 315°
2026-05-05 11:57 29.55991 40.24970 36021 ft 463 kts 315°
2026-05-05 11:57 29.61372 40.20810 36027 ft 463 kts 315°
2026-05-05 11:58 29.66801 40.16609 36033 ft 461 kts 315°
2026-05-05 11:58 29.72157 40.12458 36039 ft 462 kts 316°
2026-05-05 11:59 29.77519 40.08298 36037 ft 461 kts 315°
2026-05-05 11:59 29.83077 40.04354 36041 ft 466 kts 319°
2026-05-05 12:00 29.88687 40.00552 36021 ft 466 kts 319°
2026-05-05 12:00 29.94307 39.96722 36039 ft 465 kts 319°
2026-05-05 12:01 29.99933 39.92879 36019 ft 466 kts 319°
2026-05-05 12:01 30.05541 39.89044 36013 ft 467 kts 319°
2026-05-05 12:02 30.11183 39.85181 36006 ft 465 kts 319°
2026-05-05 12:02 30.16792 39.81335 36005 ft 464 kts 319°
2026-05-05 12:03 30.22427 39.77466 36006 ft 465 kts 319°
2026-05-05 12:03 30.28011 39.73626 36004 ft 464 kts 319°
2026-05-05 12:04 30.33588 39.69786 36012 ft 464 kts 319°
2026-05-05 12:04 30.39203 39.65915 36008 ft 466 kts 319°
2026-05-05 12:05 30.44812 39.62020 36005 ft 468 kts 319°
2026-05-05 12:05 30.50428 39.58099 36002 ft 469 kts 319°
2026-05-05 12:06 30.56049 39.54168 36001 ft 469 kts 319°
2026-05-05 12:06 30.61712 39.50202 36004 ft 469 kts 319°
2026-05-05 12:07 30.67328 39.46264 36006 ft 469 kts 319°
2026-05-05 12:07 30.72933 39.42327 36000 ft 467 kts 318°
2026-05-05 12:08 30.78543 39.38383 35999 ft 467 kts 318°
2026-05-05 12:08 30.84120 39.34455 36007 ft 466 kts 318°
2026-05-05 12:09 30.89654 39.30554 36014 ft 465 kts 318°
2026-05-05 12:09 30.95229 39.26617 36018 ft 465 kts 318°
2026-05-05 12:10 31.00777 39.22694 36018 ft 464 kts 317°
2026-05-05 12:10 31.03377 39.20475 35969 ft 445 kts 305°
2026-05-05 12:10 31.05216 39.17709 36010 ft 422 kts 290°
2026-05-05 12:11 31.06278 39.14590 36027 ft 410 kts 280°
2026-05-05 12:11 31.07177 39.11354 36019 ft 413 kts 282°
2026-05-05 12:11 31.09083 39.05000 36014 ft 413 kts 282°
2026-05-05 12:12 31.11010 38.98663 36011 ft 414 kts 282°
2026-05-05 12:12 31.12952 38.92281 36022 ft 414 kts 283°
2026-05-05 12:13 31.14891 38.85888 36017 ft 414 kts 282°
2026-05-05 12:13 31.16813 38.79549 36007 ft 413 kts 282°
2026-05-05 12:14 31.18741 38.73189 36008 ft 414 kts 282°
2026-05-05 12:14 31.20669 38.66827 35999 ft 414 kts 282°
2026-05-05 12:15 31.22588 38.60478 35991 ft 414 kts 282°
2026-05-05 12:15 31.24519 38.54077 35987 ft 413 kts 282°
2026-05-05 12:16 31.26432 38.47722 35984 ft 413 kts 282°
2026-05-05 12:16 31.28353 38.41329 35984 ft 413 kts 283°
2026-05-05 12:17 31.30258 38.34974 35991 ft 412 kts 282°
2026-05-05 12:17 31.32074 38.28905 36000 ft 413 kts 282°
2026-05-05 12:18 31.33888 38.22835 35998 ft 412 kts 282°
2026-05-05 12:18 31.35760 38.16565 35993 ft 392 kts 282°
2026-05-05 12:19 31.37536 38.10589 35977 ft 380 kts 282°
2026-05-05 12:19 31.39269 38.04733 35447 ft 393 kts 282°
2026-05-05 12:20 31.40167 38.01709 34701 ft 396 kts 282°
2026-05-05 12:20 31.41071 37.98662 34088 ft 394 kts 282°
2026-05-05 12:20 31.41976 37.95609 33419 ft 393 kts 282°
2026-05-05 12:20 31.42877 37.92555 32761 ft 394 kts 282°
2026-05-05 12:21 31.43776 37.89507 32064 ft 396 kts 282°
2026-05-05 12:21 31.44673 37.86464 31412 ft 397 kts 283°
2026-05-05 12:21 31.45584 37.83376 30806 ft 397 kts 283°
2026-05-05 12:21 31.46479 37.80334 30290 ft 395 kts 283°
2026-05-05 12:22 31.47385 37.77260 29798 ft 393 kts 283°
2026-05-05 12:22 31.48266 37.74261 29241 ft 391 kts 283°
2026-05-05 12:22 31.49148 37.71232 28682 ft 387 kts 282°
2026-05-05 12:22 31.49534 37.68175 28074 ft 378 kts 268°
2026-05-05 12:23 31.49522 37.65125 27511 ft 376 kts 268°
2026-05-05 12:23 31.49521 37.62071 26962 ft 373 kts 268°
2026-05-05 12:23 31.49517 37.59045 26480 ft 369 kts 268°
2026-05-05 12:23 31.49511 37.56036 26015 ft 365 kts 268°
2026-05-05 12:24 31.49506 37.53081 25507 ft 361 kts 268°
2026-05-05 12:24 31.49502 37.50156 25123 ft 354 kts 268°
2026-05-05 12:24 31.49495 37.47263 24660 ft 350 kts 268°
2026-05-05 12:24 31.49488 37.44418 24189 ft 347 kts 269°
2026-05-05 12:25 31.49480 37.41577 23706 ft 343 kts 269°
2026-05-05 12:25 31.49471 37.38786 23203 ft 340 kts 269°
2026-05-05 12:25 31.49464 37.36019 22678 ft 338 kts 269°
2026-05-05 12:25 31.49453 37.33270 22212 ft 334 kts 268°
2026-05-05 12:26 31.49445 37.30539 21748 ft 331 kts 268°
2026-05-05 12:26 31.49437 37.28337 21372 ft 328 kts 268°
2026-05-05 12:26 31.49428 37.26230 20987 ft 326 kts 269°
2026-05-05 12:26 31.49417 37.23550 20580 ft 324 kts 269°
2026-05-05 12:27 31.49405 37.20910 20063 ft 324 kts 269°
2026-05-05 12:27 31.49394 37.18278 19693 ft 319 kts 269°
2026-05-05 12:27 31.49382 37.15669 19271 ft 319 kts 269°
2026-05-05 12:27 31.49368 37.13060 18850 ft 319 kts 269°
2026-05-05 12:28 31.49356 37.10433 18422 ft 317 kts 269°
2026-05-05 12:28 31.49342 37.07858 17904 ft 320 kts 269°
2026-05-05 12:28 31.49328 37.05245 17555 ft 314 kts 269°
2026-05-05 12:28 31.49315 37.02691 17066 ft 316 kts 270°
2026-05-05 12:29 31.49668 37.00167 16684 ft 314 kts 286°
2026-05-05 12:29 31.50384 36.97754 16271 ft 312 kts 286°
2026-05-05 12:29 31.51087 36.95335 15838 ft 311 kts 286°
2026-05-05 12:29 31.51784 36.92937 15399 ft 309 kts 286°
2026-05-05 12:30 31.52469 36.90577 14972 ft 309 kts 286°
2026-05-05 12:30 31.53167 36.88168 14517 ft 307 kts 286°
2026-05-05 12:30 31.53847 36.85820 14074 ft 305 kts 286°
2026-05-05 12:30 31.54535 36.83447 13611 ft 304 kts 286°
2026-05-05 12:31 31.55205 36.81131 13166 ft 302 kts 286°
2026-05-05 12:31 31.55883 36.78782 12704 ft 301 kts 286°
2026-05-05 12:31 31.56556 36.76458 12272 ft 299 kts 287°
2026-05-05 12:31 31.57472 36.74272 11855 ft 302 kts 296°
2026-05-05 12:32 31.58486 36.72105 11439 ft 300 kts 295°
2026-05-05 12:32 31.59483 36.69959 11040 ft 300 kts 295°
2026-05-05 12:32 31.60488 36.67796 10659 ft 298 kts 295°
2026-05-05 12:32 31.61481 36.65657 10315 ft 296 kts 295°
2026-05-05 12:33 31.62449 36.63566 10250 ft 291 kts 295°
2026-05-05 12:33 31.63404 36.61507 10141 ft 282 kts 295°
2026-05-05 12:33 31.64312 36.59551 9995 ft 264 kts 295°
2026-05-05 12:33 31.65169 36.57700 9939 ft 248 kts 295°
2026-05-05 12:34 31.65982 36.55938 9703 ft 245 kts 295°
2026-05-05 12:34 31.66795 36.54172 9439 ft 244 kts 295°
2026-05-05 12:34 31.67600 36.52427 9183 ft 243 kts 295°
2026-05-05 12:34 31.68403 36.50687 8939 ft 241 kts 295°
2026-05-05 12:35 31.69203 36.48953 8690 ft 239 kts 295°
2026-05-05 12:35 31.69994 36.47240 8444 ft 237 kts 295°
2026-05-05 12:35 31.70780 36.45536 8210 ft 235 kts 295°
2026-05-05 12:35 31.71564 36.43832 7977 ft 234 kts 295°
2026-05-05 12:36 31.72336 36.42156 7750 ft 233 kts 295°
2026-05-05 12:36 31.73116 36.40466 7518 ft 232 kts 296°
2026-05-05 12:36 31.73881 36.38802 7289 ft 232 kts 296°
2026-05-05 12:36 31.74654 36.37123 7137 ft 228 kts 296°
2026-05-05 12:37 31.75410 36.35479 7072 ft 227 kts 296°
2026-05-05 12:37 31.76092 36.33997 6998 ft 220 kts 295°
2026-05-05 12:37 31.76261 36.33608 6974 ft 220 kts 291°
2026-05-05 12:37 31.76470 36.32848 6964 ft 229 kts 278°
2026-05-05 12:38 31.76625 36.30988 6989 ft 222 kts 277°
2026-05-05 12:38 31.76782 36.29179 6952 ft 216 kts 272°
2026-05-05 12:38 31.76846 36.27968 6911 ft 219 kts 273°
2026-05-05 12:38 31.76866 36.26149 6627 ft 221 kts 262°
2026-05-05 12:39 31.76604 36.24372 6349 ft 215 kts 261°
2026-05-05 12:39 31.76371 36.22702 6006 ft 202 kts 261°
2026-05-05 12:39 31.76152 36.21125 5757 ft 187 kts 261°
2026-05-05 12:39 31.75939 36.19658 5598 ft 175 kts 261°
2026-05-05 12:40 31.75745 36.18294 5488 ft 158 kts 261°
2026-05-05 12:40 31.75571 36.17070 5196 ft 148 kts 261°
2026-05-05 12:40 31.75406 36.15916 4961 ft 138 kts 261°
2026-05-05 12:40 31.75247 36.14805 4769 ft 138 kts 261°
2026-05-05 12:41 31.75086 36.13688 4582 ft 139 kts 260°
2026-05-05 12:41 31.74926 36.12570 4395 ft 138 kts 261°
2026-05-05 12:41 31.74764 36.11434 4207 ft 139 kts 259°
2026-05-05 12:41 31.74602 36.10325 4021 ft 138 kts 260°
2026-05-05 12:42 31.74442 36.09209 3833 ft 138 kts 260°
2026-05-05 12:42 31.74285 36.08107 3654 ft 137 kts 259°
2026-05-05 12:42 31.74123 36.06992 3472 ft 137 kts 260°
2026-05-05 12:42 31.73964 36.05880 3286 ft 137 kts 260°
2026-05-05 12:43 31.73804 36.04768 3104 ft 137 kts 259°
2026-05-05 12:43 31.73643 36.03654 2919 ft 137 kts 259°
2026-05-05 12:43 31.73482 36.02555 2739 ft 137 kts 259°
2026-05-05 12:43 31.73317 36.01444 2575 ft 137 kts 258°
2026-05-05 12:44 31.73155 36.00338 2422 ft 138 kts 257°
2026-05-05 12:44 31.73019 35.99358 2398 ft 95 kts 260°
2026-05-05 12:44 31.72940 35.98807 2385 ft 41 kts 260°
2026-05-05 12:44 31.72885 35.98420 2375 ft 49 kts 260°
2026-05-05 12:45 31.72825 35.98217 2370 ft 20 kts 212°
2026-05-05 12:45 31.72702 35.98214 2369 ft 15 kts 171°
2026-05-05 12:45 31.72611 35.98248 2369 ft 12 kts 135°
2026-05-05 12:45 31.72598 35.98340 2370 ft 11 kts 82°
2026-05-05 12:46 31.72610 35.98433 2371 ft 15 kts 82°
2026-05-05 12:46 31.72636 35.98612 2373 ft 26 kts 80°
2026-05-05 12:46 31.72662 35.98790 2374 ft 17 kts 80°
2026-05-05 12:46 31.72632 35.98893 2375 ft 13 kts 149°
2026-05-05 12:47 31.72549 35.98902 2374 ft 11 kts 189°
2026-05-05 12:47 31.72486 35.98886 2374 ft 6 kts 194°
2026-05-05 12:47 31.72461 35.98878 2374 ft 0 kts 195°